When you browse on this site, cookies collect data to enhance your experience and personalize the content and advertising you see.
Visit our Privacy Policy to learn more. By continuing to use the site, you agree to this use of cookies and data.
  • In Latvia
  • List of Countries
  • For 7 days
  • Water Temperature
  • Weather Map
  • Weather Widgets
  • user-avatar
    Login

    Hourly Weather Hodykino

    Today, 25 August, Sunday

    Time Temperature Precipitation Wind Pressure Humidity
    00:00 +15°C° 0 mm 2 mps 751 mmHg 92%
    01:00 +15°C° 0 mm 2 mps 751 mmHg 93%
    02:00 +14°C° 0 mm 2 mps 752 mmHg 95%
    03:00 +14°C° 0 mm 2 mps 752 mmHg 95%
    04:00 +14°C° 0 mm 2 mps 752 mmHg 96%
    05:00 +13°C° 0 mm 2 mps 752 mmHg 96%
    06:00 +15°C° 0 mm 2 mps 752 mmHg 90%
    07:00 +16°C° 0 mm 3 mps 752 mmHg 84%
    08:00 +18°C° 0 mm 3 mps 753 mmHg 77%
    09:00 +19°C° 0 mm 3 mps 753 mmHg 71%
    10:00 +20°C° 0 mm 3 mps 753 mmHg 64%
    11:00 +21°C° 0 mm 3 mps 753 mmHg 57%
    12:00 +21°C° 0 mm 3 mps 753 mmHg 56%
    13:00 +22°C° 0 mm 3 mps 753 mmHg 56%
    14:00 +22°C° 0 mm 3 mps 753 mmHg 55%
    15:00 +22°C° 0 mm 3 mps 753 mmHg 59%
    16:00 +21°C° 0 mm 2 mps 753 mmHg 63%
    17:00 +21°C° 0 mm 2 mps 753 mmHg 67%
    18:00 +19°C° 0 mm 2 mps 753 mmHg 72%
    19:00 +18°C° 0 mm 1 mps 754 mmHg 78%
    20:00 +15°C° 0 mm 1 mps 754 mmHg 83%
    21:00 +15°C° 0 mm 1 mps 754 mmHg 85%
    22:00 +14°C° 0 mm 1 mps 754 mmHg 87%
    23:00 +13°C° 0 mm 1 mps 754 mmHg 89%

    Tomorrow, 26 August, Monday

    Time Temperature Precipitation Wind Pressure Humidity
    00:00 +13°C° 0 mm 1 mps 754 mmHg 89%
    01:00 +13°C° 0 mm 1 mps 755 mmHg 89%
    02:00 +12°C° 0 mm 0 mps 755 mmHg 90%
    03:00 +11°C° 0 mm 0 mps 755 mmHg 90%
    04:00 +11°C° 0 mm 0 mps 755 mmHg 91%
    05:00 +11°C° 0 mm 0 mps 755 mmHg 91%
    06:00 +13°C° 0 mm 0 mps 755 mmHg 85%
    07:00 +15°C° 0 mm 0 mps 755 mmHg 79%
    08:00 +17°C° 0 mm 0 mps 755 mmHg 73%
    09:00 +18°C° 0 mm 0 mps 755 mmHg 68%
    10:00 +20°C° 0 mm 0 mps 755 mmHg 63%
    11:00 +23°C° 0 mm 1 mps 754 mmHg 57%
    12:00 +23°C° 0 mm 1 mps 754 mmHg 56%
    13:00 +24°C° 0 mm 1 mps 754 mmHg 54%
    14:00 +24°C° 0 mm 2 mps 753 mmHg 52%
    15:00 +23°C° 0 mm 1 mps 753 mmHg 56%
    16:00 +23°C° 0 mm 1 mps 753 mmHg 61%
    17:00 +22°C° 0 mm 1 mps 752 mmHg 65%
    18:00 +20°C° 0 mm 1 mps 752 mmHg 69%
    19:00 +19°C° 0 mm 1 mps 752 mmHg 73%
    20:00 +16°C° 0 mm 1 mps 752 mmHg 77%
    21:00 +15°C° 0 mm 2 mps 752 mmHg 79%
    22:00 +15°C° 0 mm 2 mps 751 mmHg 81%
    23:00 +14°C° 0 mm 2 mps 751 mmHg 84%

    Day after tomorrow, 27 August, Tuesday

    Time Temperature Precipitation Wind Pressure Humidity
    00:00 +14°C° 0 mm 2 mps 751 mmHg 85%
    01:00 +14°C° 0 mm 2 mps 751 mmHg 87%
    02:00 +14°C° 0 mm 2 mps 750 mmHg 89%
    03:00 +14°C° 0 mm 2 mps 750 mmHg 89%
    04:00 +14°C° 0 mm 2 mps 750 mmHg 89%
    05:00 +13°C° 0 mm 3 mps 749 mmHg 88%
    06:00 +14°C° 0 mm 3 mps 749 mmHg 84%
    07:00 +17°C° 0 mm 4 mps 749 mmHg 80%
    08:00 +18°C° 0 mm 4 mps 749 mmHg 76%
    09:00 +20°C° 0.2 mm 5 mps 748 mmHg 74%
    10:00 +21°C° 0.2 mm 5 mps 748 mmHg 71%
    11:00 +22°C° 0.2 mm 6 mps 748 mmHg 69%
    12:00 +22°C° 0.2 mm 5 mps 748 mmHg 69%
    13:00 +22°C° 0.2 mm 5 mps 748 mmHg 69%
    14:00 +22°C° 0.2 mm 5 mps 747 mmHg 69%
    15:00 +21°C° 0 mm 5 mps 747 mmHg 69%
    16:00 +21°C° 0 mm 4 mps 747 mmHg 68%
    17:00 +20°C° 0 mm 4 mps 747 mmHg 68%
    18:00 +18°C° 0 mm 4 mps 747 mmHg 71%
    19:00 +17°C° 0 mm 3 mps 748 mmHg 74%
    20:00 +14°C° 0 mm 3 mps 748 mmHg 77%
    21:00 +14°C° 0 mm 3 mps 748 mmHg 79%
    22:00 +13°C° 0 mm 3 mps 749 mmHg 81%
    23:00 +13°C° 0 mm 3 mps 749 mmHg 83%

    28 August, Wednesday

    Time Temperature Precipitation Wind Pressure Humidity
    00:00 +12°C° 0 mm 3 mps 749 mmHg 85%
    01:00 +11°C° 0 mm 3 mps 749 mmHg 87%
    02:00 +10°C° 0 mm 3 mps 749 mmHg 89%
    03:00 +9°C° 0 mm 3 mps 750 mmHg 90%
    04:00 +8°C° 0 mm 3 mps 750 mmHg 92%
    05:00 +7°C° 0 mm 2 mps 750 mmHg 93%
    06:00 +9°C° 0 mm 3 mps 751 mmHg 85%
    07:00 +10°C° 0 mm 3 mps 751 mmHg 76%
    08:00 +12°C° 0 mm 4 mps 751 mmHg 68%
    09:00 +13°C° 0 mm 4 mps 751 mmHg 63%
    10:00 +13°C° 0 mm 4 mps 751 mmHg 58%
    11:00 +14°C° 0 mm 4 mps 751 mmHg 54%
    12:00 +15°C° 0 mm 4 mps 751 mmHg 52%
    13:00 +15°C° 0 mm 5 mps 751 mmHg 50%
    14:00 +16°C° 0 mm 5 mps 751 mmHg 47%
    15:00 +15°C° 0 mm 4 mps 751 mmHg 51%
    16:00 +15°C° 0 mm 4 mps 751 mmHg 55%
    17:00 +14°C° 0 mm 3 mps 751 mmHg 59%
    18:00 +12°C° 0 mm 3 mps 751 mmHg 62%
    19:00 +10°C° 0 mm 3 mps 751 mmHg 66%
    20:00 +9°C° 0 mm 3 mps 752 mmHg 69%
    21:00 +8°C° 0 mm 2 mps 752 mmHg 72%
    22:00 +7°C° 0 mm 2 mps 752 mmHg 74%
    23:00 +6°C° 0 mm 2 mps 753 mmHg 77%

    29 August, Thursday

    Time Temperature Precipitation Wind Pressure Humidity
    00:00 +6°C° 0 mm 2 mps 753 mmHg 80%
    01:00 +5°C° 0 mm 2 mps 753 mmHg 83%
    02:00 +5°C° 0 mm 2 mps 753 mmHg 86%
    03:00 +5°C° 0 mm 2 mps 753 mmHg 87%
    04:00 +4°C° 0 mm 2 mps 753 mmHg 88%
    05:00 +4°C° 0 mm 2 mps 754 mmHg 90%
    06:00 +6°C° 0 mm 2 mps 754 mmHg 83%
    07:00 +8°C° 0 mm 3 mps 754 mmHg 76%
    08:00 +10°C° 0 mm 3 mps 754 mmHg 69%
    09:00 +11°C° 0 mm 3 mps 754 mmHg 65%
    10:00 +12°C° 0 mm 3 mps 754 mmHg 60%
    11:00 +14°C° 0 mm 3 mps 754 mmHg 55%
    12:00 +14°C° 0 mm 3 mps 753 mmHg 54%
    13:00 +16°C° 0 mm 3 mps 753 mmHg 53%
    14:00 +17°C° 0 mm 3 mps 753 mmHg 51%
    15:00 +16°C° 0 mm 3 mps 753 mmHg 55%
    16:00 +16°C° 0 mm 2 mps 753 mmHg 59%
    17:00 +15°C° 0 mm 2 mps 753 mmHg 63%
    18:00 +13°C° 0 mm 2 mps 753 mmHg 67%
    19:00 +12°C° 0 mm 2 mps 753 mmHg 71%
    20:00 +9°C° 0 mm 2 mps 753 mmHg 76%
    21:00 +9°C° 0 mm 1 mps 753 mmHg 77%
    22:00 +8°C° 0 mm 1 mps 753 mmHg 79%
    23:00 +8°C° 0 mm 1 mps 753 mmHg 81%

    30 August, Friday

    Time Temperature Precipitation Wind Pressure Humidity
    00:00 +7°C° 0 mm 1 mps 753 mmHg 82%
    01:00 +7°C° 0 mm 1 mps 753 mmHg 84%
    02:00 +6°C° 0 mm 1 mps 753 mmHg 85%
    03:00 +6°C° 0 mm 1 mps 753 mmHg 86%
    04:00 +6°C° 0 mm 1 mps 753 mmHg 87%
    05:00 +6°C° 0 mm 1 mps 753 mmHg 88%
    06:00 +8°C° 0 mm 1 mps 753 mmHg 80%
    07:00 +9°C° 0 mm 2 mps 753 mmHg 73%
    08:00 +12°C° 0 mm 2 mps 753 mmHg 65%
    09:00 +13°C° 0 mm 2 mps 753 mmHg 60%
    10:00 +15°C° 0 mm 2 mps 753 mmHg 55%
    11:00 +16°C° 0 mm 2 mps 753 mmHg 50%
    12:00 +17°C° 0 mm 2 mps 752 mmHg 49%
    13:00 +18°C° 0 mm 2 mps 752 mmHg 49%
    14:00 +19°C° 0 mm 2 mps 751 mmHg 49%
    15:00 +18°C° 0 mm 2 mps 751 mmHg 55%
    16:00 +18°C° 0 mm 2 mps 751 mmHg 61%
    17:00 +17°C° 0 mm 2 mps 750 mmHg 68%
    18:00 +16°C° 0 mm 2 mps 750 mmHg 74%
    19:00 +15°C° 0 mm 2 mps 750 mmHg 79%
    20:00 +12°C° 0 mm 3 mps 750 mmHg 85%
    21:00 +13°C° 0 mm 2 mps 750 mmHg 88%
    22:00 +13°C° 0 mm 2 mps 750 mmHg 91%
    23:00 +13°C° 0 mm 2 mps 750 mmHg 95%
    Show more